Thunderstorms From: 22-05-2018 15:00 Until: 23-05-2018 15:00 warning for: Thunderstorms Level: Yellow info button

Although rather usual in this region, locally or potentially dangerous phenomena are expected. (such as local winds, summer thunderstorms, rising streams or high waves) Be aware and pay attention to the latest weather updates, especially if you carry out activities exposed to weather or close to a stream or shoreline. 


Meteo18 Weather Cam more information Meteo18 Weather Cam


warning for Thunderstorms more information blitzortung!


Rain radar more information rain snow radar


Visit our other weather sites:

Template documentation
and downloads

And another site



Weather Underground History page Text

Daily Summary for March 9, 2017 Units:  English    Metric   Both
« Previous Day
Next Day »
Daily Weekly Monthly Yearly Custom
  High: Low: Average:
Temperature: TemperatureC °F 9.3 °F 11.4 °F
Dew Point: DewpointC °F 7.8 °F 9.1 °F
Humidity: Humidity % 69 % 86 %
Wind Speed: WindSpeedKMH mph 0.0 mph 9.4 mph
Wind Gust: WindSpeedGustKMH mph - -
Wind:- - WSW
Pressure: PressurehPa in 1024.6 in -
Precipitation: 0.0 in    
Historical Graphs
 
 
Tabular Data for March 9, 2017
Time Temperature Dew Point Pressure Wind Wind Speed Wind Gust Humidity Rainfall Rate (Hourly)
TemperatureC °F DewpointC °F PressurehPa in Calm     Humidity % HourlyPrecipMM in
00:02 10.7 °F 9.9 °F 1024.9 in WNW 20.9 mph 24.1 mph 95 % 0.0 in
00:07 10.6 °F 9.8 °F 1024.9 in West 16.1 mph 25.7 mph 95 % 0.0 in
00:12 10.6 °F 9.8 °F 1024.9 in WNW 11.3 mph 27.4 mph 95 % 0.0 in
00:17 10.6 °F 9.8 °F 1024.9 in WSW 9.7 mph 27.4 mph 95 % 0.0 in
00:22 10.6 °F 9.8 °F 1024.9 in West 19.3 mph 27.4 mph 95 % 0.0 in
00:27 10.6 °F 9.8 °F 1024.9 in West 17.7 mph 24.1 mph 95 % 0.0 in
00:32 10.5 °F 9.7 °F 1024.6 in SW 12.9 mph 24.1 mph 95 % 0.0 in
00:37 10.5 °F 9.7 °F 1024.9 in West 24.1 mph 25.7 mph 95 % 0.0 in
00:42 10.6 °F 9.8 °F 1024.9 in West 9.7 mph 32.2 mph 95 % 0.0 in
00:47 10.6 °F 9.8 °F 1024.9 in WSW 19.3 mph 32.2 mph 95 % 0.0 in
00:52 10.5 °F 9.7 °F 1024.9 in West 14.5 mph 32.2 mph 95 % 0.0 in
00:57 10.5 °F 9.7 °F 1024.9 in West 12.9 mph 30.6 mph 95 % 0.0 in
01:02 10.5 °F 9.7 °F 1024.9 in West 12.9 mph 25.7 mph 95 % 0.0 in
01:07 10.4 °F 9.8 °F 1024.9 in WNW 25.7 mph 25.7 mph 96 % 0.0 in
01:12 10.5 °F 9.9 °F 1024.9 in WSW 25.7 mph 33.8 mph 96 % 0.0 in
01:17 10.5 °F 9.7 °F 1024.9 in WSW 19.3 mph 35.4 mph 95 % 0.0 in
01:22 10.5 °F 9.7 °F 1024.9 in WSW 19.3 mph 35.4 mph 95 % 0.0 in
01:27 10.5 °F 9.7 °F 1024.9 in West 14.5 mph 35.4 mph 95 % 0.0 in
01:32 10.5 °F 9.7 °F 1024.9 in WSW 16.1 mph 30.6 mph 95 % 0.0 in
01:37 10.4 °F 9.6 °F 1025.3 in WSW 19.3 mph 27.4 mph 95 % 0.0 in
01:42 10.5 °F 9.7 °F 1025.3 in WSW 27.4 mph 29.0 mph 95 % 0.0 in
01:52 10.5 °F 9.7 °F 1025.3 in SW 16.1 mph 33.8 mph 95 % 0.0 in
01:57 10.5 °F 9.7 °F 1024.9 in WSW 14.5 mph 33.8 mph 95 % 0.0 in
02:02 10.4 °F 9.6 °F 1024.9 in West 22.5 mph 30.6 mph 95 % 0.0 in
02:07 10.5 °F 9.7 °F 1024.9 in WSW 14.5 mph 30.6 mph 95 % 0.0 in
02:12 10.4 °F 9.6 °F 1024.9 in WNW 16.1 mph 29.0 mph 95 % 0.0 in
02:17 10.4 °F 9.6 °F 1024.9 in SSW 14.5 mph 29.0 mph 95 % 0.0 in
02:22 10.4 °F 9.6 °F 1024.9 in WSW 9.7 mph 27.4 mph 95 % 0.0 in
02:27 10.4 °F 9.6 °F 1024.9 in West 25.7 mph 27.4 mph 95 % 0.0 in
02:32 10.4 °F 9.6 °F 1024.9 in West 9.7 mph 29.0 mph 95 % 0.0 in
02:42 10.3 °F 9.5 °F 1024.9 in West 19.3 mph 29.0 mph 95 % 0.0 in
02:47 10.3 °F 9.5 °F 1024.9 in West 16.1 mph 29.0 mph 95 % 0.0 in
02:52 10.3 °F 9.7 °F 1024.9 in West 14.5 mph 29.0 mph 96 % 0.0 in
02:57 10.3 °F 9.7 °F 1024.9 in West 11.3 mph 29.0 mph 96 % 0.0 in
03:02 10.3 °F 9.7 °F 1024.9 in WSW 9.7 mph 27.4 mph 96 % 0.0 in
03:07 10.2 °F 9.6 °F 1024.9 in WSW 16.1 mph 27.4 mph 96 % 0.0 in
03:12 10.2 °F 9.6 °F 1024.9 in WSW 8.0 mph 25.7 mph 96 % 0.0 in
03:17 10.2 °F 9.6 °F 1025.3 in SW 11.3 mph 29.0 mph 96 % 0.0 in
03:22 10.2 °F 9.6 °F 1025.3 in West 9.7 mph 29.0 mph 96 % 0.0 in
03:27 10.2 °F 9.6 °F 1025.3 in WSW 4.8 mph 29.0 mph 96 % 0.0 in
03:32 10.2 °F 9.6 °F 1025.3 in West 11.3 mph 19.3 mph 96 % 0.0 in
03:42 10.2 °F 9.6 °F 1025.3 in WSW 12.9 mph 19.3 mph 96 % 0.0 in
03:47 10.2 °F 9.6 °F 1025.3 in WSW 16.1 mph 19.3 mph 96 % 0.0 in
03:52 10.2 °F 9.6 °F 1025.3 in West 14.5 mph 17.7 mph 96 % 0.0 in
03:57 10.2 °F 9.6 °F 1025.3 in West 9.7 mph 19.3 mph 96 % 0.0 in
04:02 10.2 °F 9.6 °F 1025.3 in WSW 8.0 mph 25.7 mph 96 % 0.0 in
04:07 10.2 °F 9.6 °F 1024.9 in West 14.5 mph 25.7 mph 96 % 0.0 in
04:12 10.1 °F 9.5 °F 1025.3 in WSW 12.9 mph 29.0 mph 96 % 0.0 in
04:17 10.1 °F 9.5 °F 1025.3 in WSW 11.3 mph 29.0 mph 96 % 0.0 in
04:22 10.1 °F 9.5 °F 1025.3 in West 6.4 mph 17.7 mph 96 % 0.0 in
04:27 10.1 °F 9.5 °F 1025.3 in WSW 16.1 mph 17.7 mph 96 % 0.0 in
04:32 10.1 °F 9.5 °F 1025.3 in Calm   22.5 mph 96 % 0.0 in
04:37 10.1 °F 9.5 °F 1025.3 in West 3.2 mph 24.1 mph 96 % 0.0 in
04:42 10.1 °F 9.5 °F 1025.3 in WSW 1.6 mph 24.1 mph 96 % 0.0 in
04:47 10.0 °F 9.4 °F 1025.3 in West 8.0 mph 24.1 mph 96 % 0.0 in
04:52 10.0 °F 9.4 °F 1025.3 in West 8.0 mph 24.1 mph 96 % 0.0 in
04:57 9.9 °F 9.3 °F 1025.3 in SW 4.8 mph 20.9 mph 96 % 0.0 in
05:02 9.9 °F 9.3 °F 1025.3 in SW 4.8 mph 20.9 mph 96 % 0.0 in
05:07 9.9 °F 9.3 °F 1025.6 in WSW 9.7 mph 20.9 mph 96 % 0.0 in
05:12 9.9 °F 9.3 °F 1025.3 in SW 16.1 mph 20.9 mph 96 % 0.0 in
05:17 9.8 °F 9.2 °F 1025.3 in SSW 6.4 mph 19.3 mph 96 % 0.0 in
05:22 9.8 °F 9.2 °F 1025.3 in WSW 4.8 mph 19.3 mph 96 % 0.0 in
05:27 9.8 °F 9.2 °F 1025.3 in WNW 17.7 mph 19.3 mph 96 % 0.0 in
05:32 9.8 °F 9.2 °F 1025.3 in SW 8.0 mph 19.3 mph 96 % 0.0 in
05:37 9.7 °F 9.1 °F 1025.3 in SW 12.9 mph 20.9 mph 96 % 0.0 in
05:42 9.7 °F 9.1 °F 1025.3 in West 6.4 mph 20.9 mph 96 % 0.0 in
05:47 9.7 °F 9.1 °F 1025.6 in WSW 12.9 mph 20.9 mph 96 % 0.0 in
05:52 9.7 °F 9.1 °F 1025.6 in West 8.0 mph 20.9 mph 96 % 0.0 in
05:57 9.7 °F 9.1 °F 1025.3 in WSW 12.9 mph 25.7 mph 96 % 0.0 in
06:02 9.7 °F 8.9 °F 1025.6 in WSW 17.7 mph 25.7 mph 95 % 0.0 in
06:07 9.7 °F 8.9 °F 1025.6 in WSW 14.5 mph 19.3 mph 95 % 0.0 in
06:12 9.8 °F 8.9 °F 1025.6 in SW 14.5 mph 19.3 mph 94 % 0.0 in
06:17 9.7 °F 8.8 °F 1025.6 in SW 14.5 mph 22.5 mph 94 % 0.0 in
06:22 9.8 °F 8.9 °F 1025.6 in SW 9.7 mph 22.5 mph 94 % 0.0 in
06:32 9.7 °F 8.8 °F 1026.0 in WSW 16.1 mph 24.1 mph 94 % 0.0 in
06:42 9.7 °F 8.8 °F 1026.0 in SW 9.7 mph 24.1 mph 94 % 0.0 in
06:52 9.7 °F 8.8 °F 1026.0 in SW 4.8 mph 19.3 mph 94 % 0.0 in
07:02 9.6 °F 8.7 °F 1026.0 in SW 6.4 mph 16.1 mph 94 % 0.0 in
07:07 9.6 °F 8.7 °F 1026.0 in SSW 3.2 mph 19.3 mph 94 % 0.0 in
07:12 9.6 °F 8.7 °F 1026.0 in SSW 11.3 mph 19.3 mph 94 % 0.0 in
07:17 9.6 °F 8.5 °F 1026.0 in WSW 8.0 mph 24.1 mph 93 % 0.0 in
07:22 9.6 °F 8.5 °F 1025.6 in SW 9.7 mph 24.1 mph 93 % 0.0 in
07:32 9.6 °F 8.5 °F 1025.6 in SW 8.0 mph 24.1 mph 93 % 0.0 in
07:37 9.5 °F 8.4 °F 1025.6 in SSW 8.0 mph 17.7 mph 93 % 0.0 in
07:42 9.5 °F 8.4 °F 1025.6 in SW 16.1 mph 17.7 mph 93 % 0.0 in
07:47 9.5 °F 8.4 °F 1025.6 in SSW 12.9 mph 19.3 mph 93 % 0.0 in
07:57 9.4 °F 8.3 °F 1025.6 in SW 12.9 mph 19.3 mph 93 % 0.0 in
08:02 9.4 °F 8.3 °F 1025.6 in SW 14.5 mph 19.3 mph 93 % 0.0 in
08:07 9.4 °F 8.3 °F 1025.6 in SW 9.7 mph 19.3 mph 93 % 0.0 in
08:12 9.4 °F 8.3 °F 1025.6 in SW 9.7 mph 19.3 mph 93 % 0.0 in
08:17 9.4 °F 8.3 °F 1025.6 in SW 14.5 mph 19.3 mph 93 % 0.0 in
08:22 9.4 °F 8.3 °F 1026.0 in SSW 9.7 mph 19.3 mph 93 % 0.0 in
08:27 9.4 °F 8.3 °F 1026.0 in SW 11.3 mph 19.3 mph 93 % 0.0 in
08:32 9.4 °F 8.3 °F 1026.0 in SW 11.3 mph 19.3 mph 93 % 0.0 in
08:37 9.4 °F 8.3 °F 1026.0 in SSW 8.0 mph 19.3 mph 93 % 0.0 in
08:42 9.4 °F 8.3 °F 1026.0 in West 4.8 mph 19.3 mph 93 % 0.0 in
08:47 9.3 °F 8.4 °F 1026.3 in SW 3.2 mph 17.7 mph 94 % 0.0 in
08:52 9.3 °F 8.4 °F 1026.3 in SW 6.4 mph 17.7 mph 94 % 0.0 in
08:57 9.3 °F 8.4 °F 1026.3 in SW 3.2 mph 12.9 mph 94 % 0.0 in
09:02 9.3 °F 8.4 °F 1026.3 in SSW 6.4 mph 12.9 mph 94 % 0.0 in
09:12 9.3 °F 8.5 °F 1026.3 in SW 6.4 mph 14.5 mph 95 % 0.0 in
09:17 9.3 °F 8.5 °F 1026.6 in WSW 3.2 mph 14.5 mph 95 % 0.0 in
09:22 9.3 °F 8.4 °F 1026.6 in SW 11.3 mph 14.5 mph 94 % 0.0 in
09:27 9.4 °F 8.5 °F 1026.3 in SSW 9.7 mph 14.5 mph 94 % 0.0 in
09:32 9.4 °F 8.5 °F 1026.6 in SW 8.0 mph 14.5 mph 94 % 0.0 in
09:37 9.4 °F 8.5 °F 1026.3 in SW 8.0 mph 14.5 mph 94 % 0.0 in
09:42 9.4 °F 8.5 °F 1026.6 in SW 6.4 mph 14.5 mph 94 % 0.0 in
09:47 9.5 °F 8.6 °F 1026.6 in West 11.3 mph 16.1 mph 94 % 0.0 in
09:52 9.5 °F 8.6 °F 1026.6 in West 8.0 mph 16.1 mph 94 % 0.0 in
09:57 9.5 °F 8.4 °F 1026.6 in WSW 14.5 mph 20.9 mph 93 % 0.0 in
10:02 9.6 °F 8.5 °F 1026.6 in West 3.2 mph 20.9 mph 93 % 0.0 in
10:12 9.7 °F 8.6 °F 1026.6 in WSW 8.0 mph 17.7 mph 93 % 0.0 in
10:17 9.7 °F 8.6 °F 1026.6 in SW 3.2 mph 16.1 mph 93 % 0.0 in
10:27 9.9 °F 8.7 °F 1026.6 in WSW 9.7 mph 17.7 mph 92 % 0.0 in
10:32 10.1 °F 8.9 °F 1026.6 in WNW 11.3 mph 17.7 mph 92 % 0.0 in
10:37 10.2 °F 9.0 °F 1026.6 in WSW 8.0 mph 19.3 mph 92 % 0.0 in
10:42 10.2 °F 8.8 °F 1026.6 in WSW 20.9 mph 20.9 mph 91 % 0.0 in
10:47 10.3 °F 9.1 °F 1026.3 in WSW 12.9 mph 29.0 mph 92 % 0.0 in
10:52 10.4 °F 9.0 °F 1026.3 in SSW 6.4 mph 29.0 mph 91 % 0.0 in
10:57 10.5 °F 8.9 °F 1026.3 in WSW 12.9 mph 29.0 mph 90 % 0.0 in
11:02 10.6 °F 9.0 °F 1026.3 in WSW 14.5 mph 24.1 mph 90 % 0.0 in
11:12 10.8 °F 9.2 °F 1026.3 in WSW 16.1 mph 24.1 mph 90 % 0.0 in
11:17 10.9 °F 9.2 °F 1026.3 in SW 11.3 mph 24.1 mph 89 % 0.0 in
11:22 10.9 °F 9.0 °F 1026.3 in SW 11.3 mph 25.7 mph 88 % 0.0 in
11:27 11.2 °F 9.3 °F 1026.3 in SW 9.7 mph 29.0 mph 88 % 0.0 in
11:32 11.3 °F 9.2 °F 1026.3 in WSW 14.5 mph 29.0 mph 87 % 0.0 in
11:37 11.6 °F 9.5 °F 1026.3 in SW 6.4 mph 29.0 mph 87 % 0.0 in
11:42 11.6 °F 9.3 °F 1026.3 in West 20.9 mph 22.5 mph 86 % 0.0 in
11:47 11.6 °F 9.0 °F 1026.3 in WSW 17.7 mph 29.0 mph 84 % 0.0 in
11:52 11.7 °F 9.1 °F 1026.3 in NW 9.7 mph 29.0 mph 84 % 0.0 in
11:57 11.8 °F 9.0 °F 1026.3 in West 24.1 mph 30.6 mph 83 % 0.0 in
12:02 11.8 °F 8.8 °F 1026.3 in West 20.9 mph 35.4 mph 82 % 0.0 in
12:07 12.0 °F 9.0 °F 1026.3 in WSW 19.3 mph 35.4 mph 82 % 0.0 in
12:12 12.1 °F 8.9 °F 1026.3 in West 17.7 mph 33.8 mph 81 % 0.0 in
12:17 12.2 °F 9.4 °F 1026.3 in WSW 12.9 mph 35.4 mph 83 % 0.0 in
12:22 12.4 °F 9.2 °F 1026.3 in West 24.1 mph 35.4 mph 81 % 0.0 in
12:27 12.4 °F 9.2 °F 1026.3 in SW 16.1 mph 37.0 mph 81 % 0.0 in
12:32 12.4 °F 9.0 °F 1026.6 in SW 17.7 mph 37.0 mph 80 % 0.0 in
12:37 12.7 °F 9.5 °F 1026.3 in West 27.4 mph 37.0 mph 81 % 0.0 in
12:42 12.6 °F 9.1 °F 1026.6 in WSW 32.2 mph 35.4 mph 79 % 0.0 in
12:47 12.6 °F 9.2 °F 1026.6 in West 22.5 mph 37.0 mph 80 % 0.0 in
12:52 12.6 °F 9.4 °F 1026.6 in West 12.9 mph 37.0 mph 81 % 0.0 in
12:57 12.5 °F 9.1 °F 1026.6 in West 22.5 mph 37.0 mph 80 % 0.0 in
13:02 12.5 °F 9.1 °F 1026.6 in West 6.4 mph 32.2 mph 80 % 0.0 in
13:12 12.7 °F 9.0 °F 1026.6 in West 9.7 mph 27.4 mph 78 % 0.0 in
13:17 12.8 °F 9.1 °F 1026.6 in SSW 12.9 mph 24.1 mph 78 % 0.0 in
13:22 12.7 °F 8.6 °F 1026.6 in WSW 16.1 mph 22.5 mph 76 % 0.0 in
13:27 12.8 °F 9.1 °F 1026.6 in SW 12.9 mph 25.7 mph 78 % 0.0 in
13:32 12.9 °F 8.8 °F 1026.6 in West 8.0 mph 25.7 mph 76 % 0.0 in
13:37 13.0 °F 9.1 °F 1026.6 in WSW 8.0 mph 25.7 mph 77 % 0.0 in
13:42 13.2 °F 9.1 °F 1026.6 in West 8.0 mph 24.1 mph 76 % 0.0 in
13:47 13.2 °F 8.9 °F 1026.6 in WSW 12.9 mph 24.1 mph 75 % 0.0 in
13:52 13.2 °F 9.1 °F 1026.6 in West 20.9 mph 27.4 mph 76 % 0.0 in
13:57 13.1 °F 8.6 °F 1026.3 in West 14.5 mph 27.4 mph 74 % 0.0 in
14:02 13.2 °F 8.9 °F 1026.3 in SW 8.0 mph 22.5 mph 75 % 0.0 in
14:12 13.4 °F 8.7 °F 1026.3 in WSW 17.7 mph 22.5 mph 73 % 0.0 in
14:17 13.4 °F 8.9 °F 1026.3 in WSW 16.1 mph 25.7 mph 74 % 0.0 in
14:22 13.6 °F 9.1 °F 1026.3 in WSW 9.7 mph 25.7 mph 74 % 0.0 in
14:27 13.5 °F 8.6 °F 1026.0 in West 14.5 mph 25.7 mph 72 % 0.0 in
14:32 13.6 °F 8.6 °F 1026.3 in West 11.3 mph 25.7 mph 72 % 0.0 in
14:37 13.7 °F 8.9 °F 1026.0 in SW 11.3 mph 25.7 mph 73 % 0.0 in
14:42 13.6 °F 8.4 °F 1026.3 in West 16.1 mph 24.1 mph 71 % 0.0 in
14:47 13.4 °F 7.8 °F 1026.0 in WSW 11.3 mph 24.1 mph 69 % 0.0 in
14:52 13.3 °F 7.9 °F 1026.0 in West 14.5 mph 27.4 mph 70 % 0.0 in
14:57 13.4 °F 8.0 °F 1026.0 in West 11.3 mph 27.4 mph 70 % 0.0 in
15:02 13.5 °F 8.6 °F 1026.0 in SW 11.3 mph 27.4 mph 72 % 0.0 in
15:12 13.6 °F 8.2 °F 1026.0 in SSW 16.1 mph 20.9 mph 70 % 0.0 in
15:17 13.6 °F 8.4 °F 1026.0 in SW 8.0 mph 20.9 mph 71 % 0.0 in
15:22 13.7 °F 8.3 °F 1026.0 in West 9.7 mph 19.3 mph 70 % 0.0 in
15:32 13.8 °F 8.6 °F 1026.0 in WSW 8.0 mph 19.3 mph 71 % 0.0 in
15:37 13.8 °F 8.2 °F 1026.0 in WSW 8.0 mph 20.9 mph 69 % 0.0 in
15:42 13.8 °F 8.2 °F 1026.0 in SW 11.3 mph 22.5 mph 69 % 0.0 in
15:47 13.9 °F 8.5 °F 1026.0 in West 14.5 mph 22.5 mph 70 % 0.0 in
15:52 13.9 °F 8.5 °F 1026.0 in SW 9.7 mph 22.5 mph 70 % 0.0 in
15:57 13.8 °F 8.4 °F 1026.0 in West 9.7 mph 20.9 mph 70 % 0.0 in
16:02 13.7 °F 8.5 °F 1026.0 in WSW 14.5 mph 20.9 mph 71 % 0.0 in
16:12 13.9 °F 8.5 °F 1026.0 in SSW 11.3 mph 22.5 mph 70 % 0.0 in
16:17 13.8 °F 8.8 °F 1026.0 in WNW 9.7 mph 24.1 mph 72 % 0.0 in
16:22 13.9 °F 8.9 °F 1026.0 in WNW 17.7 mph 25.7 mph 72 % 0.0 in
16:32 13.8 °F 8.8 °F 1026.0 in SW 9.7 mph 20.9 mph 72 % 0.0 in
16:37 13.8 °F 8.8 °F 1026.0 in WSW 6.4 mph 19.3 mph 72 % 0.0 in
16:42 13.8 °F 8.8 °F 1026.0 in SW 8.0 mph 19.3 mph 72 % 0.0 in
16:52 13.6 °F 8.9 °F 1026.0 in West 12.9 mph 19.3 mph 73 % 0.0 in
16:57 13.6 °F 9.1 °F 1026.0 in West 8.0 mph 19.3 mph 74 % 0.0 in
17:02 13.6 °F 8.9 °F 1026.0 in WSW 9.7 mph 19.3 mph 73 % 0.0 in
17:12 13.6 °F 9.1 °F 1026.0 in West 6.4 mph 16.1 mph 74 % 0.0 in
17:17 13.5 °F 9.0 °F 1026.0 in WSW 8.0 mph 14.5 mph 74 % 0.0 in
17:22 13.5 °F 9.2 °F 1026.0 in WNW 1.6 mph 16.1 mph 75 % 0.0 in
17:27 13.4 °F 8.9 °F 1026.0 in WNW 4.8 mph 16.1 mph 74 % 0.0 in
17:32 13.4 °F 9.1 °F 1026.0 in WSW 6.4 mph 16.1 mph 75 % 0.0 in
17:42 13.4 °F 9.1 °F 1026.3 in WNW 3.2 mph 9.7 mph 75 % 0.0 in
17:47 13.4 °F 8.9 °F 1026.3 in WSW 3.2 mph 11.3 mph 74 % 0.0 in
17:52 13.4 °F 8.9 °F 1026.3 in WNW 3.2 mph 11.3 mph 74 % 0.0 in
17:57 13.4 °F 9.1 °F 1026.3 in West 6.4 mph 12.9 mph 75 % 0.0 in
18:02 13.4 °F 9.1 °F 1026.3 in WNW 4.8 mph 12.9 mph 75 % 0.0 in
18:07 13.3 °F 9.0 °F 1026.3 in West 1.6 mph 12.9 mph 75 % 0.0 in
18:12 13.3 °F 9.2 °F 1026.3 in WNW 3.2 mph 12.9 mph 76 % 0.0 in
18:17 13.3 °F 9.2 °F 1026.3 in Calm   6.4 mph 76 % 0.0 in
18:27 13.2 °F 9.1 °F 1026.3 in Calm   4.8 mph 76 % 0.0 in
18:32 13.2 °F 9.3 °F 1026.3 in Calm   4.8 mph 77 % 0.0 in
18:37 13.1 °F 9.2 °F 1026.6 in Calm   4.8 mph 77 % 0.0 in
18:42 13.0 °F 9.1 °F 1026.6 in Calm   4.8 mph 77 % 0.0 in
18:47 12.9 °F 9.2 °F 1026.6 in West 1.6 mph 3.2 mph 78 % 0.0 in
18:52 12.9 °F 9.3 °F 1026.6 in West 1.6 mph 3.2 mph 79 % 0.0 in
18:57 12.9 °F 9.3 °F 1026.6 in West 1.6 mph 3.2 mph 79 % 0.0 in
19:02 12.8 °F 9.2 °F 1026.6 in WSW 3.2 mph 3.2 mph 79 % 0.0 in
19:12 12.9 °F 9.3 °F 1026.6 in WNW 3.2 mph 6.4 mph 79 % 0.0 in
19:17 12.8 °F 9.2 °F 1026.6 in West 3.2 mph 6.4 mph 79 % 0.0 in
19:22 12.8 °F 9.2 °F 1026.6 in West 4.8 mph 6.4 mph 79 % 0.0 in
19:27 12.8 °F 9.2 °F 1027.0 in WNW 3.2 mph 8.0 mph 79 % 0.0 in
19:32 12.8 °F 9.4 °F 1027.0 in WNW 3.2 mph 8.0 mph 80 % 0.0 in
19:37 12.8 °F 9.4 °F 1027.0 in WNW 1.6 mph 6.4 mph 80 % 0.0 in
19:42 12.7 °F 9.3 °F 1027.3 in Calm   4.8 mph 80 % 0.0 in
19:52 12.7 °F 9.3 °F 1027.3 in Calm   3.2 mph 80 % 0.0 in
19:57 12.7 °F 9.5 °F 1027.3 in WNW 3.2 mph 8.0 mph 81 % 0.0 in
20:02 12.6 °F 9.4 °F 1027.3 in WNW 6.4 mph 9.7 mph 81 % 0.0 in
20:07 12.6 °F 9.4 °F 1027.3 in WNW 8.0 mph 9.7 mph 81 % 0.0 in
20:12 12.6 °F 9.6 °F 1027.7 in West 3.2 mph 9.7 mph 82 % 0.0 in
20:17 12.5 °F 9.5 °F 1027.7 in WNW 3.2 mph 9.7 mph 82 % 0.0 in
20:22 12.4 °F 9.6 °F 1027.7 in WNW 3.2 mph 9.7 mph 83 % 0.0 in
20:27 12.4 °F 9.6 °F 1027.7 in WNW 4.8 mph 6.4 mph 83 % 0.0 in
20:32 12.3 °F 9.7 °F 1027.7 in WNW 3.2 mph 6.4 mph 84 % 0.0 in
20:37 12.3 °F 9.7 °F 1027.7 in NW 3.2 mph 8.0 mph 84 % 0.0 in
20:42 12.3 °F 9.7 °F 1027.7 in West 3.2 mph 8.0 mph 84 % 0.0 in
20:47 12.2 °F 9.8 °F 1027.7 in West 3.2 mph 8.0 mph 85 % 0.0 in
20:52 12.2 °F 9.8 °F 1027.7 in West 1.6 mph 8.0 mph 85 % 0.0 in
20:57 12.2 °F 9.8 °F 1027.7 in Calm   6.4 mph 85 % 0.0 in
21:02 12.2 °F 9.8 °F 1027.7 in Calm   6.4 mph 85 % 0.0 in
21:12 12.1 °F 9.7 °F 1027.7 in Calm   3.2 mph 85 % 0.0 in
21:17 12.1 °F 9.8 °F 1027.7 in Calm   3.2 mph 86 % 0.0 in
21:22 12.1 °F 9.8 °F 1027.7 in Calm   1.6 mph 86 % 0.0 in
21:27 12.1 °F 9.8 °F 1027.7 in Calm     86 % 0.0 in
21:32 12.0 °F 9.7 °F 1027.7 in Calm     86 % 0.0 in
21:37 12.0 °F 9.7 °F 1027.7 in Calm     86 % 0.0 in
21:42 12.0 °F 9.7 °F 1027.3 in Calm     86 % 0.0 in
21:47 11.9 °F 9.6 °F 1027.3 in Calm     86 % 0.0 in
21:52 11.9 °F 9.6 °F 1027.7 in Calm     86 % 0.0 in
21:57 11.9 °F 9.8 °F 1027.7 in Calm     87 % 0.0 in
22:02 11.9 °F 9.8 °F 1027.7 in Calm     87 % 0.0 in
22:12 11.9 °F 9.8 °F 1027.7 in WSW 3.2 mph 3.2 mph 87 % 0.0 in
22:17 11.9 °F 9.8 °F 1027.7 in WNW 1.6 mph 4.8 mph 87 % 0.0 in
22:22 11.9 °F 9.8 °F 1027.7 in Calm   4.8 mph 87 % 0.0 in
22:27 11.9 °F 9.8 °F 1027.3 in West 1.6 mph 4.8 mph 87 % 0.0 in
22:32 11.9 °F 9.8 °F 1027.3 in WSW 3.2 mph 3.2 mph 87 % 0.0 in
22:42 11.8 °F 9.9 °F 1027.3 in Calm   3.2 mph 88 % 0.0 in
22:47 11.8 °F 9.9 °F 1027.3 in Calm   3.2 mph 88 % 0.0 in
22:52 11.8 °F 9.9 °F 1027.3 in Calm   1.6 mph 88 % 0.0 in
22:57 11.7 °F 9.8 °F 1027.3 in WSW 1.6 mph 1.6 mph 88 % 0.0 in
23:02 11.7 °F 9.8 °F 1027.3 in Calm   4.8 mph 88 % 0.0 in
23:12 11.7 °F 9.8 °F 1027.3 in Calm   4.8 mph 88 % 0.0 in
23:17 11.7 °F 9.9 °F 1027.3 in Calm   3.2 mph 89 % 0.0 in
23:22 11.7 °F 9.8 °F 1027.3 in Calm   3.2 mph 88 % 0.0 in
23:27 11.6 °F 9.8 °F 1027.3 in Calm   1.6 mph 89 % 0.0 in
23:32 11.6 °F 9.8 °F 1027.3 in Calm   1.6 mph 89 % 0.0 in
23:37 11.5 °F 9.7 °F 1027.3 in Calm   1.6 mph 89 % 0.0 in
23:42 11.4 °F 9.7 °F 1027.3 in Calm   1.6 mph 89 % 0.0 in
23:47 11.4 °F 9.7 °F 1027.3 in Calm   1.6 mph 89 % 0.0 in
23:52 11.4 °F 9.7 °F 1027.3 in Calm     89 % 0.0 in
23:57 11.3 °F 9.7 °F 1027.3 in Calm     90 % 0.0 in
Meteo18
Compliments of Weather Underground - 4 mb

Script developed by  Jim McMurry - jmcmurry@mwt.net Adapted for the template by  Wim van der Kuil - Leuven-Template.eu

You find our weather info also at:

European Weather Network

Weather Underground

Equipment we use:

Weather-station
Davis Vue

Weather-program
Meteobridge

Weather-server
Raspberry PI 2 B+

Provider
1 and 1

Davis Vue

Meteobridge

Raspberry PI 2 B+

1 and 1